Terminal Aerodrome Forecast
Issued by NWS

Home | Current Version | Previous Version | Text Only | Print | Product List | Glossary On
Versions: 1 2 3 4 5 6 7 8 9 10 11 12 13 14 15 16 17 18
000
FTUS41 KGYX 041120
TAFHIE
TAF
KHIE 041120Z 0412/0512 00000KT P6SM SKC
     FM041700 23009G16KT P6SM BKN250
     FM042200 24007KT P6SM BKN250
     FM050400 24006KT P6SM OVC050 PROB30 0504/0505 P6SM -SHRA OVC050
     FM050900 31006KT P6SM SCT250=

USA.gov is the U.S. government's official web portal to all federal, state and local government web resources and services.